,,,PA_Meas_PMT16A,,PR_Meas_QMR101_102,,RH_Meas_QMH101,,SR_Meas_QMS101,,TA_Meas_QMH101,,GenWind,,GenWind,
date,time,status,PA,status,PR,status,RH,status,SR,status,TA,status,DirAvg,status,SpdAvg,
2008-03-27, 00:00:04,VALID,1003.64,VALID,0,VALID,91.9585,VALID,0,VALID,24.854,VALID,293,VALID,0.480469,
2008-03-27, 00:01:04,VALID,1003.61,VALID,0,VALID,91.7297,VALID,0,VALID,24.8949,VALID,293,VALID,0.456641,
2008-03-27, 00:02:04,VALID,1003.58,VALID,0,VALID,91.4703,VALID,0,VALID,24.9143,VALID,294,VALID,0.372266,
2008-03-27, 00:03:04,VALID,1003.55,VALID,0,VALID,91.2719,VALID,0,VALID,24.9533,VALID,294,VALID,0.289844,
2008-03-27, 00:04:04,VALID,1003.55,VALID,0,VALID,90.982,VALID,0,VALID,24.9728,VALID,294,VALID,0.219531,
2008-03-27, 00:05:04,VALID,1003.53,VALID,0,VALID,91.5161,VALID,0,VALID,24.9922,VALID,294,VALID,0.330469,
2008-03-27, 00:06:04,VALID,1003.5,VALID,0,VALID,91.7144,VALID,0,VALID,25.0117,VALID,301,VALID,0.228516,
2008-03-27, 00:07:04,VALID,1003.49,VALID,0,VALID,91.867,VALID,0,VALID,24.9533,VALID,350,VALID,0.264844,
2008-03-27, 00:08:04,VALID,1003.44,VALID,0,VALID,92.1645,VALID,0,VALID,24.9143,VALID,350,VALID,0.324219,
2008-03-27, 00:09:04,VALID,1003.45,VALID,0,VALID,92.4163,VALID,0,VALID,24.8559,VALID,350,VALID,0.277734,
2008-03-27, 00:10:04,VALID,1003.44,VALID,0,VALID,92.401,VALID,0,VALID,24.7761,VALID,1,VALID,0.362109,
2008-03-27, 00:11:04,VALID,1003.44,VALID,0,VALID,92.5841,VALID,0,VALID,24.7391,VALID,1,VALID,0.212109,
2008-03-27, 00:12:04,VALID,1003.4,VALID,0,VALID,92.7672,VALID,0,VALID,24.7001,VALID,1,VALID,0,
2008-03-27, 00:13:04,VALID,1003.4,VALID,0,VALID,92.9274,VALID,0,VALID,24.6612,VALID,1,VALID,0,
2008-03-27, 00:14:04,VALID,1003.4,VALID,0,VALID,93.0571,VALID,0,VALID,24.6417,VALID,1,VALID,0,
2008-03-27, 00:15:04,VALID,1003.39,VALID,0,VALID,93.1334,VALID,0,VALID,24.6009,VALID,1,VALID,0,
2008-03-27, 00:16:04,VALID,1003.41,VALID,0,VALID,93.2325,VALID,0,VALID,24.6028,VALID,336,VALID,0,
2008-03-27, 00:17:04,VALID,1003.41,VALID,0,VALID,93.2936,VALID,0,VALID,24.5814,VALID,336,VALID,0.101172,
2008-03-27, 00:18:04,VALID,1003.42,VALID,0,VALID,93.3165,VALID,0,VALID,24.6028,VALID,336,VALID,0.0238281,
2008-03-27, 00:19:04,VALID,1003.46,VALID,0,VALID,93.202,VALID,0,VALID,24.5814,VALID,336,VALID,0.0449219,
2008-03-27, 00:20:04,VALID,1003.45,VALID,0,VALID,93.0418,VALID,0,VALID,24.6009,VALID,336,VALID,0.386719,
2008-03-27, 00:21:04,VALID,1003.48,VALID,0,VALID,92.9808,VALID,0,VALID,24.6028,VALID,336,VALID,0.113281,
2008-03-27, 00:22:04,VALID,1003.47,VALID,0,VALID,92.9045,VALID,0,VALID,24.6222,VALID,336,VALID,0.340234,
2008-03-27, 00:23:04,VALID,1003.48,VALID,0,VALID,92.9045,VALID,0,VALID,24.6417,VALID,339,VALID,0.391797,
2008-03-27, 00:24:04,VALID,1003.5,VALID,0,VALID,92.7901,VALID,0,VALID,24.6612,VALID,344,VALID,0.455469,
2008-03-27, 00:25:04,VALID,1003.51,VALID,0,VALID,92.6528,VALID,0,VALID,24.6204,VALID,346,VALID,0.218359,
2008-03-27, 00:26:04,VALID,1003.49,VALID,0,VALID,92.4925,VALID,0,VALID,24.6612,VALID,347,VALID,0.439063,
2008-03-27, 00:27:04,VALID,1003.51,VALID,0,VALID,92.4239,VALID,0,VALID,24.6807,VALID,348,VALID,0.480859,
2008-03-27, 00:28:04,VALID,1003.52,VALID,0,VALID,92.4925,VALID,0,VALID,24.7001,VALID,348,VALID,0.490234,
2008-03-27, 00:29:04,VALID,1003.52,VALID,0,VALID,92.4849,VALID,0,VALID,24.6788,VALID,348,VALID,0.485156,
2008-03-27, 00:30:04,VALID,1003.5,VALID,0,VALID,92.5917,VALID,0,VALID,24.7196,VALID,348,VALID,0.454297,
2008-03-27, 00:31:04,VALID,1003.5,VALID,0,VALID,92.5307,VALID,0,VALID,24.7001,VALID,348,VALID,0.346875,
2008-03-27, 00:32:04,VALID,1003.47,VALID,0,VALID,92.6146,VALID,0,VALID,24.6593,VALID,348,VALID,0.0882813,
2008-03-27, 00:33:04,VALID,1003.49,VALID,0,VALID,92.7062,VALID,0,VALID,24.6612,VALID,348,VALID,0.398047,
2008-03-27, 00:34:04,VALID,1003.46,VALID,0,VALID,92.6985,VALID,0,VALID,24.6398,VALID,345,VALID,0.489844,
2008-03-27, 00:35:04,VALID,1003.45,VALID,0,VALID,92.668,VALID,0,VALID,24.6612,VALID,356,VALID,0.616406,
2008-03-27, 00:36:04,VALID,1003.43,VALID,0,VALID,92.8816,VALID,0,VALID,24.6593,VALID,356,VALID,0.65,
2008-03-27, 00:37:04,VALID,1003.44,VALID,0,VALID,92.5688,VALID,0,VALID,24.6593,VALID,355,VALID,0.667969,
2008-03-27, 00:38:04,VALID,1003.44,VALID,0,VALID,92.4239,VALID,0.100563,VALID,24.6593,VALID,353,VALID,0.618359,
2008-03-27, 00:39:04,VALID,1003.43,VALID,0,VALID,92.1798,VALID,0,VALID,24.6788,VALID,350,VALID,0.484375,
2008-03-27, 00:40:04,VALID,1003.42,VALID,0,VALID,92.073,VALID,0,VALID,24.6769,VALID,352,VALID,0.544141,
2008-03-27, 00:41:04,VALID,1003.41,VALID,0,VALID,91.9433,VALID,0,VALID,24.7372,VALID,300,VALID,0.526172,
2008-03-27, 00:42:04,VALID,1003.43,VALID,0,VALID,91.9204,VALID,0,VALID,24.778,VALID,294,VALID,0.239063,
2008-03-27, 00:43:04,VALID,1003.43,VALID,0,VALID,91.8822,VALID,0,VALID,24.7761,VALID,303,VALID,0.161719,
2008-03-27, 00:44:04,VALID,1003.45,VALID,0,VALID,91.7602,VALID,0,VALID,24.7956,VALID,349,VALID,0.557813,
2008-03-27, 00:45:04,VALID,1003.44,VALID,0,VALID,91.8822,VALID,0,VALID,24.8151,VALID,349,VALID,0.450391,
2008-03-27, 00:46:04,VALID,1003.42,VALID,0,VALID,91.7602,VALID,0,VALID,24.817,VALID,349,VALID,0.524219,
2008-03-27, 00:47:04,VALID,1003.47,VALID,0,VALID,91.8975,VALID,0,VALID,24.8364,VALID,349,VALID,0.518359,
2008-03-27, 00:48:04,VALID,1003.46,VALID,0,VALID,91.8059,VALID,0,VALID,24.7761,VALID,350,VALID,0.701563,
2008-03-27, 00:49:04,VALID,1003.46,VALID,0,VALID,91.6915,VALID,0,VALID,24.7956,VALID,350,VALID,0.630469,
2008-03-27, 00:50:04,VALID,1003.44,VALID,0,VALID,91.5542,VALID,0,VALID,24.7975,VALID,350,VALID,0.318359,
2008-03-27, 00:51:04,VALID,1003.42,VALID,0,VALID,91.5237,VALID,0,VALID,24.817,VALID,350,VALID,0.421484,
2008-03-27, 00:52:04,VALID,1003.42,VALID,0,VALID,91.4474,VALID,0,VALID,24.8364,VALID,350,VALID,0.352344,
2008-03-27, 00:53:04,VALID,1003.44,VALID,0,VALID,91.394,VALID,0,VALID,24.8346,VALID,350,VALID,0.280859,
2008-03-27, 00:54:04,VALID,1003.41,VALID,0,VALID,91.5695,VALID,0,VALID,24.8346,VALID,350,VALID,0.0292969,
2008-03-27, 00:55:04,VALID,1003.41,VALID,0,VALID,91.6152,VALID,0,VALID,24.8346,VALID,350,VALID,0.00273437,
2008-03-27, 00:56:04,VALID,1003.41,VALID,0,VALID,91.6457,VALID,0,VALID,24.8559,VALID,350,VALID,0,
2008-03-27, 00:57:04,VALID,1003.4,VALID,0,VALID,92.1035,VALID,0,VALID,24.854,VALID,350,VALID,0.238672,
2008-03-27, 00:58:04,VALID,1003.37,VALID,0,VALID,92.0119,VALID,0,VALID,24.8735,VALID,350,VALID,0,
2008-03-27, 00:59:04,VALID,1003.39,VALID,0,VALID,91.867,VALID,0,VALID,24.8735,VALID,350,VALID,0.0046875,
2008-03-27, 01:00:04,VALID,1003.37,VALID,0,VALID,91.5923,VALID,0,VALID,24.854,VALID,279,VALID,0.209375,
2008-03-27, 01:01:04,VALID,1003.34,VALID,0,VALID,91.989,VALID,0,VALID,24.9338,VALID,303,VALID,0.364062,
2008-03-27, 01:02:04,VALID,1003.33,VALID,0,VALID,91.9738,VALID,0,VALID,24.9533,VALID,303,VALID,0.310156,
2008-03-27, 01:03:04,VALID,1003.31,VALID,0,VALID,91.9585,VALID,0,VALID,24.9125,VALID,307,VALID,0.362109,
2008-03-27, 01:04:04,VALID,1003.29,VALID,0,VALID,92.0119,VALID,0,VALID,24.9125,VALID,307,VALID,0.412109,
2008-03-27, 01:05:04,VALID,1003.28,VALID,0,VALID,92.1187,VALID,0,VALID,24.9143,VALID,340,VALID,0.433984,
2008-03-27, 01:06:04,VALID,1003.28,VALID,0,VALID,92.073,VALID,0,VALID,24.8949,VALID,340,VALID,0.376563,
2008-03-27, 01:07:04,VALID,1003.28,VALID,0,VALID,91.9967,VALID,0,VALID,24.8346,VALID,340,VALID,0.00898437,
2008-03-27, 01:08:04,VALID,1003.29,VALID,0,VALID,92.0806,VALID,0,VALID,24.8151,VALID,340,VALID,0.319531,
2008-03-27, 01:09:04,VALID,1003.29,VALID,0,VALID,92.1645,VALID,0,VALID,24.817,VALID,340,VALID,0.362109,
2008-03-27, 01:10:04,VALID,1003.3,VALID,0,VALID,92.2332,VALID,0,VALID,24.7956,VALID,340,VALID,0.421875,
2008-03-27, 01:11:04,VALID,1003.33,VALID,0,VALID,92.3552,VALID,0,VALID,24.7975,VALID,340,VALID,0.341406,
2008-03-27, 01:12:04,VALID,1003.33,VALID,0,VALID,92.5841,VALID,0,VALID,24.7567,VALID,340,VALID,0.342187,
2008-03-27, 01:13:04,VALID,1003.31,VALID,0,VALID,92.7901,VALID,0,VALID,24.7586,VALID,340,VALID,0.117188,
2008-03-27, 01:14:04,VALID,1003.3,VALID,0,VALID,92.9426,VALID,0,VALID,24.7372,VALID,340,VALID,0.124609,
2008-03-27, 01:15:04,VALID,1003.29,VALID,0,VALID,93.0189,VALID,0,VALID,24.7391,VALID,340,VALID,0,
2008-03-27, 01:16:04,VALID,1003.31,VALID,0,VALID,93.08,VALID,0.100563,VALID,24.6983,VALID,340,VALID,0.000390625,
2008-03-27, 01:17:04,VALID,1003.3,VALID,0,VALID,93.1715,VALID,0,VALID,24.6788,VALID,340,VALID,0.114063,
2008-03-27, 01:18:04,VALID,1003.29,VALID,0,VALID,93.2707,VALID,0,VALID,24.6593,VALID,340,VALID,0.198828,
2008-03-27, 01:19:04,VALID,1003.29,VALID,0,VALID,93.3546,VALID,0,VALID,24.6593,VALID,340,VALID,0.175,
2008-03-27, 01:20:04,VALID,1003.27,VALID,0,VALID,93.469,VALID,0,VALID,24.6398,VALID,340,VALID,0.219531,
2008-03-27, 01:21:04,VALID,1003.26,VALID,0,VALID,93.5987,VALID,0,VALID,24.6398,VALID,340,VALID,0.141797,
2008-03-27, 01:22:04,VALID,1003.26,VALID,0,VALID,93.6979,VALID,0,VALID,24.6204,VALID,340,VALID,0.215234,
2008-03-27, 01:23:04,VALID,1003.25,VALID,0,VALID,93.7818,VALID,0,VALID,24.6417,VALID,340,VALID,0.0441406,
2008-03-27, 01:24:04,VALID,1003.23,VALID,0,VALID,93.8581,VALID,0,VALID,24.6204,VALID,340,VALID,0.133984,
2008-03-27, 01:25:04,VALID,1003.25,VALID,0,VALID,93.881,VALID,0,VALID,24.6204,VALID,340,VALID,0.180859,
2008-03-27, 01:26:04,VALID,1003.23,VALID,0,VALID,93.9802,VALID,0,VALID,24.6204,VALID,340,VALID,0,
2008-03-27, 01:27:04,VALID,1003.21,VALID,0,VALID,93.9725,VALID,0,VALID,24.6417,VALID,340,VALID,0.277734,
2008-03-27, 01:28:04,VALID,1003.18,VALID,0,VALID,93.7361,VALID,0,VALID,24.6009,VALID,340,VALID,0.24375,
2008-03-27, 01:29:04,VALID,1003.14,VALID,0,VALID,93.881,VALID,0,VALID,24.6204,VALID,340,VALID,0.281641,
2008-03-27, 01:30:04,VALID,1003.15,VALID,0,VALID,93.7055,VALID,0,VALID,24.6009,VALID,340,VALID,0.125,
2008-03-27, 01:31:04,VALID,1003.1,VALID,0,VALID,93.675,VALID,0,VALID,24.6009,VALID,340,VALID,0.160547,
2008-03-27, 01:32:04,VALID,1003.07,VALID,0,VALID,93.9268,VALID,0,VALID,24.6398,VALID,341,VALID,0.461719,
2008-03-27, 01:33:04,VALID,1003.08,VALID,0,VALID,93.9268,VALID,0,VALID,24.6593,VALID,341,VALID,0.355469,
2008-03-27, 01:34:04,VALID,1003.05,VALID,0,VALID,93.82,VALID,0,VALID,24.6612,VALID,341,VALID,0.334766,
2008-03-27, 01:35:04,VALID,1003.03,VALID,0,VALID,93.7513,VALID,0,VALID,24.6593,VALID,341,VALID,0.360156,
2008-03-27, 01:36:04,VALID,1003.01,VALID,0,VALID,93.7361,VALID,0,VALID,24.6788,VALID,341,VALID,0.219531,
2008-03-27, 01:37:04,VALID,1002.97,VALID,0,VALID,93.5377,VALID,0,VALID,24.7196,VALID,341,VALID,0.148828,
2008-03-27, 01:38:04,VALID,1003,VALID,0,VALID,93.5682,VALID,0,VALID,24.7196,VALID,341,VALID,0,
2008-03-27, 01:39:04,VALID,1002.99,VALID,0,VALID,93.7361,VALID,0,VALID,24.7177,VALID,341,VALID,0,
2008-03-27, 01:40:04,VALID,1002.97,VALID,0,VALID,93.7742,VALID,0,VALID,24.7196,VALID,341,VALID,0.00625,
2008-03-27, 01:41:04,VALID,1002.99,VALID,0,VALID,93.7513,VALID,0,VALID,24.6983,VALID,347,VALID,0.384766,
2008-03-27, 01:42:04,VALID,1002.98,VALID,0,VALID,93.7666,VALID,0,VALID,24.6593,VALID,347,VALID,0.390234,
2008-03-27, 01:43:04,VALID,1002.96,VALID,0,VALID,93.8581,VALID,0,VALID,24.6593,VALID,347,VALID,0.455469,
2008-03-27, 01:44:04,VALID,1002.96,VALID,0,VALID,93.8505,VALID,0,VALID,24.6398,VALID,347,VALID,0.305859,
2008-03-27, 01:45:04,VALID,1002.97,VALID,0,VALID,93.8429,VALID,0,VALID,24.6204,VALID,347,VALID,0.0875,
2008-03-27, 01:46:04,VALID,1002.96,VALID,0,VALID,93.8581,VALID,0,VALID,24.6204,VALID,347,VALID,0,
2008-03-27, 01:47:04,VALID,1002.97,VALID,0,VALID,93.9954,VALID,0,VALID,24.6417,VALID,347,VALID,0.021875,
2008-03-27, 01:48:04,VALID,1002.98,VALID,0,VALID,94.0259,VALID,0,VALID,24.6398,VALID,347,VALID,0.220313,
2008-03-27, 01:49:04,VALID,1002.99,VALID,0,VALID,94.0183,VALID,0,VALID,24.6807,VALID,347,VALID,0.178516,
2008-03-27, 01:50:04,VALID,1002.98,VALID,0,VALID,93.9039,VALID,0,VALID,24.7001,VALID,347,VALID,0.153125,
2008-03-27, 01:51:04,VALID,1002.98,VALID,0,VALID,93.9191,VALID,0,VALID,24.7196,VALID,347,VALID,0,
2008-03-27, 01:52:04,VALID,1002.97,VALID,0,VALID,93.8657,VALID,0,VALID,24.7196,VALID,347,VALID,0,
2008-03-27, 01:53:04,VALID,1002.96,VALID,0,VALID,93.9649,VALID,0,VALID,24.7391,VALID,347,VALID,0,
2008-03-27, 01:54:04,VALID,1002.96,VALID,0,VALID,93.9497,VALID,0,VALID,24.7372,VALID,347,VALID,0.120312,
2008-03-27, 01:55:04,VALID,1002.94,VALID,0,VALID,93.9878,VALID,0,VALID,24.7372,VALID,347,VALID,0,
2008-03-27, 01:56:04,VALID,1002.95,VALID,0,VALID,93.9649,VALID,0,VALID,24.778,VALID,347,VALID,0,
2008-03-27, 01:57:04,VALID,1002.94,VALID,0,VALID,93.9115,VALID,0,VALID,24.7761,VALID,347,VALID,0,
2008-03-27, 01:58:04,VALID,1002.91,VALID,0,VALID,93.7742,VALID,0,VALID,24.778,VALID,347,VALID,0,
2008-03-27, 01:59:04,VALID,1002.9,VALID,0,VALID,93.8123,VALID,0,VALID,24.7761,VALID,347,VALID,0,
2008-03-27, 02:00:04,VALID,1002.87,VALID,0,VALID,93.6979,VALID,0,VALID,24.817,VALID,347,VALID,0.283203,
2008-03-27, 02:01:04,VALID,1002.89,VALID,0,VALID,93.6521,VALID,0,VALID,24.7956,VALID,347,VALID,0.00585938,
2008-03-27, 02:02:04,VALID,1002.88,VALID,0,VALID,93.5072,VALID,0,VALID,24.8151,VALID,347,VALID,0.178125,
2008-03-27, 02:03:04,VALID,1002.88,VALID,0,VALID,93.3851,VALID,0,VALID,24.8346,VALID,348,VALID,0.351953,
2008-03-27, 02:04:04,VALID,1002.84,VALID,0,VALID,93.3241,VALID,0,VALID,24.8346,VALID,348,VALID,0.355078,
2008-03-27, 02:05:04,VALID,1002.85,VALID,0,VALID,93.2936,VALID,0,VALID,24.8754,VALID,348,VALID,0.437109,
2008-03-27, 02:06:04,VALID,1002.88,VALID,0,VALID,93.2097,VALID,0,VALID,24.8735,VALID,348,VALID,0.418359,
2008-03-27, 02:07:04,VALID,1002.84,VALID,0,VALID,93.2783,VALID,0,VALID,24.9143,VALID,348,VALID,0.475781,
2008-03-27, 02:08:04,VALID,1002.86,VALID,0,VALID,93.2173,VALID,0,VALID,24.893,VALID,349,VALID,0.459766,
2008-03-27, 02:09:04,VALID,1002.83,VALID,0,VALID,93.1944,VALID,0,VALID,24.893,VALID,349,VALID,0.436719,
2008-03-27, 02:10:04,VALID,1002.85,VALID,0,VALID,93.2402,VALID,0,VALID,24.893,VALID,351,VALID,0.678906,
2008-03-27, 02:11:04,VALID,1002.8,VALID,0,VALID,93.2783,VALID,0,VALID,24.893,VALID,350,VALID,0.661328,
2008-03-27, 02:12:04,VALID,1002.82,VALID,0,VALID,93.2402,VALID,0,VALID,24.9125,VALID,340,VALID,0.374609,
2008-03-27, 02:13:04,VALID,1002.82,VALID,0,VALID,93.1105,VALID,0,VALID,24.9728,VALID,338,VALID,0.128516,
2008-03-27, 02:14:04,VALID,1002.79,VALID,0,VALID,93.0037,VALID,0,VALID,24.9709,VALID,302,VALID,0.626172,
2008-03-27, 02:15:04,VALID,1002.8,VALID,0,VALID,92.8892,VALID,0,VALID,25.0098,VALID,347,VALID,0.496484,
2008-03-27, 02:16:04,VALID,1002.78,VALID,0,VALID,92.7062,VALID,0,VALID,25.0488,VALID,349,VALID,0.657812,
2008-03-27, 02:17:04,VALID,1002.78,VALID,0,VALID,92.5917,VALID,0,VALID,25.0877,VALID,349,VALID,0.151172,
2008-03-27, 02:18:04,VALID,1002.79,VALID,0,VALID,92.2255,VALID,0,VALID,25.1267,VALID,301,VALID,0.819922,
2008-03-27, 02:19:04,VALID,1002.76,VALID,0,VALID,92.0424,VALID,0,VALID,25.2065,VALID,290,VALID,0.11875,
2008-03-27, 02:20:04,VALID,1002.74,VALID,0,VALID,91.722,VALID,0,VALID,25.2454,VALID,351,VALID,0.472656,
2008-03-27, 02:21:04,VALID,1002.76,VALID,0,VALID,91.5313,VALID,0,VALID,25.2844,VALID,2,VALID,0.451172,
2008-03-27, 02:22:04,VALID,1002.78,VALID,0,VALID,91.3711,VALID,0,VALID,25.3233,VALID,345,VALID,0.490625,
2008-03-27, 02:23:04,VALID,1002.76,VALID,0,VALID,91.1728,VALID,0,VALID,25.3195,VALID,344,VALID,0.963672,
2008-03-27, 02:24:04,VALID,1002.74,VALID,0,VALID,90.9286,VALID,0.100563,VALID,25.3779,VALID,351,VALID,0.884766,
2008-03-27, 02:25:04,VALID,1002.77,VALID,0,VALID,90.7455,VALID,0.100563,VALID,25.4383,VALID,344,VALID,0.378906,
2008-03-27, 02:26:04,VALID,1002.76,VALID,0,VALID,90.6006,VALID,0.100563,VALID,25.4169,VALID,337,VALID,0.583594,
2008-03-27, 02:27:04,VALID,1002.75,VALID,0,VALID,90.5472,VALID,0.100563,VALID,25.4772,VALID,356,VALID,0.652734,
2008-03-27, 02:28:04,VALID,1002.78,VALID,0,VALID,90.5853,VALID,0.100563,VALID,25.4753,VALID,358,VALID,0.247656,
2008-03-27, 02:29:04,VALID,1002.75,VALID,0,VALID,90.6158,VALID,0.100563,VALID,25.4967,VALID,358,VALID,0.0945313,
2008-03-27, 02:30:04,VALID,1002.74,VALID,0,VALID,90.4404,VALID,0,VALID,25.4772,VALID,358,VALID,0.266016,
2008-03-27, 02:31:04,VALID,1002.73,VALID,0,VALID,90.5319,VALID,0.100563,VALID,25.4558,VALID,355,VALID,0.483984,
2008-03-27, 02:32:04,VALID,1002.75,VALID,0,VALID,90.7379,VALID,0.100563,VALID,25.4558,VALID,348,VALID,0.558594,
2008-03-27, 02:33:04,VALID,1002.74,VALID,0,VALID,90.8371,VALID,0.100563,VALID,25.4363,VALID,348,VALID,0.162891,
2008-03-27, 02:34:04,VALID,1002.73,VALID,0,VALID,90.86,VALID,0.100563,VALID,25.4169,VALID,348,VALID,0,
2008-03-27, 02:35:04,VALID,1002.75,VALID,0,VALID,90.9286,VALID,0.100563,VALID,25.3974,VALID,348,VALID,0,
2008-03-27, 02:36:04,VALID,1002.75,VALID,0,VALID,91.1956,VALID,0.100563,VALID,25.4188,VALID,348,VALID,0,
2008-03-27, 02:37:04,VALID,1002.73,VALID,0,VALID,91.1117,VALID,0.100563,VALID,25.3779,VALID,348,VALID,0.154297,
2008-03-27, 02:38:04,VALID,1002.72,VALID,0,VALID,91.4932,VALID,0,VALID,25.4012,VALID,339,VALID,0,
2008-03-27, 02:39:04,VALID,1002.72,VALID,0,VALID,91.6915,VALID,0,VALID,25.3993,VALID,339,VALID,0,
2008-03-27, 02:40:04,VALID,1002.71,VALID,0,VALID,91.4092,VALID,0,VALID,25.3798,VALID,339,VALID,0,
2008-03-27, 02:41:04,VALID,1002.67,VALID,0,VALID,91.4245,VALID,0,VALID,25.3798,VALID,339,VALID,0,
2008-03-27, 02:42:04,VALID,1002.68,VALID,0,VALID,91.4779,VALID,0,VALID,25.3798,VALID,339,VALID,0,
2008-03-27, 02:43:04,VALID,1002.7,VALID,0,VALID,91.7068,VALID,0,VALID,25.3818,VALID,339,VALID,0,
2008-03-27, 02:44:04,VALID,1002.68,VALID,0,VALID,91.8975,VALID,0,VALID,25.3623,VALID,339,VALID,0,
2008-03-27, 02:45:04,VALID,1002.69,VALID,0,VALID,91.8822,VALID,0,VALID,25.3409,VALID,339,VALID,0,
2008-03-27, 02:46:04,VALID,1002.68,VALID,0,VALID,91.8746,VALID,0,VALID,25.3214,VALID,339,VALID,0,
2008-03-27, 02:47:04,VALID,1002.7,VALID,0,VALID,91.867,VALID,0,VALID,25.3428,VALID,339,VALID,0,
2008-03-27, 02:48:04,VALID,1002.67,VALID,0,VALID,91.9967,VALID,0,VALID,25.3019,VALID,339,VALID,0,
2008-03-27, 02:49:04,VALID,1002.71,VALID,0,VALID,91.9128,VALID,0,VALID,25.2825,VALID,339,VALID,0,
2008-03-27, 02:50:04,VALID,1002.71,VALID,0,VALID,91.8746,VALID,0,VALID,25.263,VALID,339,VALID,0,
2008-03-27, 02:51:04,VALID,1002.71,VALID,0,VALID,91.8136,VALID,0,VALID,25.263,VALID,339,VALID,0,
2008-03-27, 02:52:04,VALID,1002.69,VALID,0,VALID,91.8975,VALID,0,VALID,25.3039,VALID,339,VALID,0,
2008-03-27, 02:53:04,VALID,1002.7,VALID,0,VALID,92.0348,VALID,0,VALID,25.263,VALID,339,VALID,0.389453,
2008-03-27, 02:54:04,VALID,1002.72,VALID,0,VALID,91.9128,VALID,0,VALID,25.263,VALID,330,VALID,0.392578,
2008-03-27, 02:55:04,VALID,1002.69,VALID,0,VALID,92.1645,VALID,0,VALID,25.2435,VALID,329,VALID,0.340625,
2008-03-27, 02:56:04,VALID,1002.73,VALID,0,VALID,92.1035,VALID,0,VALID,25.2454,VALID,329,VALID,0.00351562,
2008-03-27, 02:57:04,VALID,1002.73,VALID,0,VALID,92.1035,VALID,0,VALID,25.226,VALID,329,VALID,0.170312,
2008-03-27, 02:58:04,VALID,1002.74,VALID,0,VALID,92.0653,VALID,0,VALID,25.2046,VALID,319,VALID,0.292188,
2008-03-27, 02:59:04,VALID,1002.73,VALID,0,VALID,91.8059,VALID,0,VALID,25.2454,VALID,308,VALID,0.329688,
2008-03-27, 03:00:04,VALID,1002.74,VALID,0,VALID,91.8441,VALID,0,VALID,25.263,VALID,321,VALID,0.471094,
2008-03-27, 03:01:04,VALID,1002.77,VALID,0,VALID,91.867,VALID,0,VALID,25.2844,VALID,345,VALID,0.507422,
2008-03-27, 03:02:04,VALID,1002.76,VALID,0,VALID,91.9814,VALID,0,VALID,25.226,VALID,355,VALID,0.619141,
2008-03-27, 03:03:04,VALID,1002.76,VALID,0,VALID,92.3018,VALID,0,VALID,25.1851,VALID,359,VALID,0.505469,
2008-03-27, 03:04:04,VALID,1002.75,VALID,0,VALID,92.5002,VALID,0,VALID,25.1675,VALID,356,VALID,0.627344,
2008-03-27, 03:05:04,VALID,1002.76,VALID,0,VALID,92.7367,VALID,0,VALID,25.1675,VALID,357,VALID,0.720312,
2008-03-27, 03:06:04,VALID,1002.78,VALID,0,VALID,92.7672,VALID,0,VALID,25.1286,VALID,353,VALID,0.769922,
2008-03-27, 03:07:04,VALID,1002.76,VALID,0,VALID,92.9198,VALID,0,VALID,25.0877,VALID,355,VALID,0.694922,
2008-03-27, 03:08:04,VALID,1002.77,VALID,0,VALID,92.9884,VALID,0,VALID,25.0877,VALID,351,VALID,0.651563,
2008-03-27, 03:09:04,VALID,1002.75,VALID,0,VALID,93.0571,VALID,0,VALID,25.1091,VALID,351,VALID,0.722266,
2008-03-27, 03:10:04,VALID,1002.75,VALID,0,VALID,93.0418,VALID,0,VALID,25.0682,VALID,351,VALID,0.619922,
2008-03-27, 03:11:04,VALID,1002.75,VALID,0,VALID,92.9426,VALID,0,VALID,25.0877,VALID,346,VALID,0.80625,
2008-03-27, 03:12:04,VALID,1002.75,VALID,0,VALID,92.935,VALID,0,VALID,25.1286,VALID,355,VALID,0.708594,
2008-03-27, 03:13:04,VALID,1002.74,VALID,0,VALID,92.9121,VALID,0,VALID,25.1286,VALID,352,VALID,0.730859,
2008-03-27, 03:14:04,VALID,1002.77,VALID,0,VALID,92.9198,VALID,0,VALID,25.1286,VALID,350,VALID,0.637109,
2008-03-27, 03:15:04,VALID,1002.73,VALID,0,VALID,92.8358,VALID,0,VALID,25.1072,VALID,350,VALID,0.545313,
2008-03-27, 03:16:04,VALID,1002.74,VALID,0,VALID,92.8282,VALID,0,VALID,25.1267,VALID,349,VALID,0.552734,
2008-03-27, 03:17:04,VALID,1002.74,VALID,0,VALID,92.8053,VALID,0,VALID,25.1675,VALID,346,VALID,0.500391,
2008-03-27, 03:18:04,VALID,1002.71,VALID,0,VALID,92.7977,VALID,0,VALID,25.1461,VALID,345,VALID,0.0453125,
2008-03-27, 03:19:04,VALID,1002.69,VALID,0,VALID,92.7748,VALID,0,VALID,25.1675,VALID,311,VALID,0.589453,
2008-03-27, 03:20:04,VALID,1002.68,VALID,0,VALID,92.6146,VALID,0,VALID,25.187,VALID,295,VALID,0.674609,
2008-03-27, 03:21:04,VALID,1002.62,VALID,0,VALID,92.5002,VALID,0,VALID,25.2046,VALID,285,VALID,0.322656,
2008-03-27, 03:22:04,VALID,1002.62,VALID,0,VALID,92.2942,VALID,0,VALID,25.224,VALID,285,VALID,0.291406,
2008-03-27, 03:23:04,VALID,1002.58,VALID,0,VALID,92.1416,VALID,0,VALID,25.2649,VALID,290,VALID,0.546875,
2008-03-27, 03:24:04,VALID,1002.59,VALID,0,VALID,91.9204,VALID,0,VALID,25.2844,VALID,307,VALID,0.289063,
2008-03-27, 03:25:04,VALID,1002.57,VALID,0,VALID,91.8288,VALID,0,VALID,25.2825,VALID,307,VALID,0,
2008-03-27, 03:26:04,VALID,1002.53,VALID,0,VALID,91.7754,VALID,0,VALID,25.3019,VALID,307,VALID,0,
2008-03-27, 03:27:04,VALID,1002.52,VALID,0,VALID,91.7525,VALID,0,VALID,25.3039,VALID,307,VALID,0,
2008-03-27, 03:28:04,VALID,1002.5,VALID,0,VALID,91.6686,VALID,0,VALID,25.3039,VALID,307,VALID,0.130078,
2008-03-27, 03:29:04,VALID,1002.5,VALID,0,VALID,91.6534,VALID,0,VALID,25.2844,VALID,307,VALID,0,
2008-03-27, 03:30:04,VALID,1002.47,VALID,0,VALID,91.6229,VALID,0,VALID,25.263,VALID,307,VALID,0,
2008-03-27, 03:31:04,VALID,1002.45,VALID,0,VALID,91.6381,VALID,0,VALID,25.263,VALID,307,VALID,0,
2008-03-27, 03:32:05,VALID,1002.47,VALID,0,VALID,91.6915,VALID,0,VALID,25.2649,VALID,307,VALID,0,
2008-03-27, 03:33:05,VALID,1002.43,VALID,0,VALID,91.7144,VALID,0,VALID,25.2435,VALID,307,VALID,0.133984,
2008-03-27, 03:34:05,VALID,1002.43,VALID,0,VALID,91.6839,VALID,0,VALID,25.2435,VALID,318,VALID,0.108203,
2008-03-27, 03:35:05,VALID,1002.46,VALID,0,VALID,91.7831,VALID,0,VALID,25.2454,VALID,339,VALID,0.274609,
2008-03-27, 03:36:05,VALID,1002.46,VALID,0,VALID,91.7602,VALID,0,VALID,25.226,VALID,342,VALID,0.191406,
2008-03-27, 03:37:05,VALID,1002.46,VALID,0,VALID,91.7373,VALID,0,VALID,25.226,VALID,353,VALID,0.664453,
2008-03-27, 03:38:05,VALID,1002.5,VALID,0,VALID,91.7297,VALID,0,VALID,25.226,VALID,344,VALID,0.224609,
2008-03-27, 03:39:05,VALID,1002.49,VALID,0,VALID,91.6991,VALID,0,VALID,25.226,VALID,292,VALID,0.321484,
2008-03-27, 03:40:05,VALID,1002.53,VALID,0,VALID,91.7144,VALID,0,VALID,25.2454,VALID,293,VALID,0.175,
2008-03-27, 03:41:05,VALID,1002.56,VALID,0,VALID,91.6457,VALID,0,VALID,25.2046,VALID,313,VALID,0.201562,
2008-03-27, 03:42:05,VALID,1002.58,VALID,0,VALID,91.6534,VALID,0,VALID,25.2454,VALID,311,VALID,0.241016,
2008-03-27, 03:43:05,VALID,1002.64,VALID,0,VALID,91.4855,VALID,0,VALID,25.226,VALID,291,VALID,0.999219,
2008-03-27, 03:44:05,VALID,1002.66,VALID,0,VALID,91.4092,VALID,0,VALID,25.2649,VALID,297,VALID,0.208594,
2008-03-27, 03:45:05,VALID,1002.69,VALID,0,VALID,91.1651,VALID,0,VALID,25.2844,VALID,297,VALID,0.771484,
2008-03-27, 03:46:05,VALID,1002.76,VALID,0,VALID,91.1575,VALID,0,VALID,25.3039,VALID,292,VALID,0.0570313,